Location: Pandora
(40.9481°N, 83.9611°W)
Time: 02:01:29
(UTC-04:00)

ISS - Pass Details

Date: 30 September 2021
Orbit: 417 x 423 km, 51.6° (Epoch: 27 October)

Event Time Altitude Azimuth Distance (km) Brightness Sun altitude
Rises 19:39:22 0° 308° (NW) 2,364 1.0 -4.7°
Reaches altitude 10° 19:42:09 10° 333° (NNW) 1,500 -0.5 -5.2°
Maximum altitude 19:44:12 15° 10° (N) 1,227 -1.5 -5.6°
Drops below altitude 10° 19:46:15 10° 48° (NE) 1,500 -1.4 -6.0°
Enters shadow 19:47:33 - 63° (ENE) 1,867 -1.0 -6.2°
